CST,Max TemperatureF,Mean TemperatureF,Min TemperatureF,Max Dew PointF,MeanDew PointF,Min DewpointF,Max Humidity, Mean Humidity, Min Humidity, Max Sea Level PressureIn, Mean Sea Level PressureIn, Min Sea Level PressureIn, Max VisibilityMiles, Mean VisibilityMiles, Min VisibilityMiles, Max Wind SpeedMPH, Mean Wind SpeedMPH, Max Gust SpeedMPH,PrecipitationIn, CloudCover, Events, WindDirDegrees
2012-1-1,42,37,32,30,20,9,80,55,29,30.54,30.36,30.05,10,10,10,30,19,38,0.00,0,,313
2012-1-2,35,25,15,10,7,0,79,49,22,30.67,30.61,30.53,10,10,10,17,11,23,0.00,0,,306
2012-1-3,50,34,17,28,16,5,63,52,40,30.45,30.18,29.95,10,10,10,23,10,30,0.00,0,,186
2012-1-4,59,44,28,30,27,23,87,61,29,30.30,30.20,30.07,10,10,10,13,8,,0.00,0,,289
2012-1-5,68,48,28,30,27,25,87,59,23,30.12,29.99,29.82,10,10,10,14,5,18,0.01,0,,213
2012-1-6,53,42,30,32,28,23,93,59,30,30.00,29.82,29.71,10,10,10,21,9,29,0.00,0,,330
2012-1-7,44,30,17,27,21,14,93,69,43,30.21,30.15,30.08,10,10,10,5,0,,0.00,2,,317
2012-1-8,44,37,30,28,25,19,87,67,37,30.33,30.28,30.24,10,10,10,8,1,,0.00,6,,334
2012-1-9,51,35,19,28,23,18,93,69,35,30.27,30.18,30.08,10,10,10,12,3,,0.00,0,,223
2012-1-10,59,42,26,32,27,21,87,66,34,30.04,29.94,29.78,10,10,10,12,4,,0.00,0,,219
2012-1-11,39,32,26,34,26,14,93,77,55,30.02,29.79,29.60,10,10,2,39,13,45,0.00,5,Snow,345
2012-1-12,24,19,14,12,7,3,68,58,46,30.03,30.00,29.96,10,10,7,26,22,39,0.00,7,,325
2012-1-13,33,19,5,18,3,-4,78,53,26,30.11,30.05,29.98,10,10,10,10,5,,0.00,0,,278
2012-1-14,46,38,30,28,23,12,81,56,27,30.17,30.05,29.83,10,10,10,24,14,41,0.00,3,,311
2012-1-15,53,42,30,25,21,18,60,48,30,30.09,29.89,29.73,10,10,10,22,11,26,0.00,0,,180
2012-1-16,42,34,26,28,25,18,86,67,53,29.81,29.71,29.66,10,10,10,18,10,25,0.00,2,,19
2012-1-17,24,14,3,18,10,0,93,74,54,30.35,30.23,29.93,10,9,0,28,14,34,0.03,2,Snow,321
2012-1-18,35,20,5,25,14,3,92,73,56,30.28,30.03,29.82,10,10,10,22,10,28,0.00,0,,196
2012-1-19,21,14,8,12,3,0,73,65,57,30.15,30.04,29.91,10,10,10,17,13,24,0.00,0,,32
2012-1-20,21,14,8,12,7,1,74,71,67,30.06,29.93,29.87,10,10,10,12,7,,0.00,0,,67
2012-1-21,28,16,5,19,11,0,85,77,69,30.20,30.06,29.77,10,10,10,16,7,26,0.00,5,,120
2012-1-22,48,38,28,37,32,23,93,80,57,29.57,29.41,29.35,10,7,3,22,14,31,0.00,2,,190
2012-1-23,39,34,28,32,29,27,100,78,65,30.00,29.86,29.63,10,10,2,25,14,31,0.01,4,Snow,303
2012-1-24,42,32,23,32,26,21,93,81,65,30.17,30.11,30.04,10,10,10,13,6,18,0.00,1,,97
2012-1-25,41,34,26,32,30,27,100,87,70,30.17,30.10,29.95,10,8,3,12,3,,0.00,2,,318
2012-1-26,51,38,24,34,27,21,100,70,32,29.96,29.92,29.88,10,9,4,30,8,36,0.00,0,,311
2012-1-27,44,35,26,30,27,23,87,75,49,30.09,29.91,29.84,10,10,10,24,5,31,0.00,6,,73
2012-1-28,46,34,21,21,16,10,86,56,23,30.30,30.24,30.19,10,10,10,25,12,33,0.00,0,,278
2012-1-29,48,36,23,23,16,14,80,46,27,30.24,30.17,30.04,10,10,10,12,7,,0.00,6,,210
2012-1-30,68,50,33,28,26,21,75,44,21,29.93,29.84,29.74,10,10,10,16,9,20,0.00,0,,205
2012-1-31,60,45,30,39,33,30,100,68,31,29.99,29.85,29.77,10,8,0,20,8,23,0.00,0,Fog,290